Stations météo

Publicité
Bergerac, France (7530): Température de l'air & dewpoint: 19.05.2018 12:00:00 - 25.05.2018 12:00:00 (CEST)Bergerac, France (7530): Température de l'air 5cm: 19.05.2018 12:00:00 - 25.05.2018 12:00:00 (CEST)Bergerac, France (7530): Température de l'air -20cm & Température de l'air -100cm: 19.05.2018 12:00:00 - 25.05.2018 12:00:00 (CEST)Bergerac, France (7530): Vitesse du vent & gusts: 19.05.2018 12:00:00 - 25.05.2018 12:00:00 (CEST)Bergerac, France (7530): Direction du vent: 19.05.2018 12:00:00 - 25.05.2018 12:00:00 (CEST)Bergerac, France (7530): reduced air pressure: 19.05.2018 12:00:00 - 25.05.2018 12:00:00 (CEST)Bergerac, France (7530): visibility: 19.05.2018 12:00:00 - 25.05.2018 12:00:00 (CEST)Bergerac, France (7530): Ensoleillement: 19.05.2018 12:00:00 - 25.05.2018 12:00:00 (CEST)Bergerac, France (7530): Quantités de précipitations: 19.05.2018 12:00:00 - 25.05.2018 12:00:00 (CEST)
Date & Time tt [°C] td [°C] tt 5cm [°C] tt -20cm [°C] tt -100cm [°C] ff [km/h] ff [knt] fx [km/h] fx [knt] dd ppp [hPa] vv [km] sd [min] rr [mm]
25.05.2018 12:00:00 22,4 17,7 23,8 17,4 15,0 7 4 16 9 SW 1015,8 19 2 0,0
25.05.2018 11:00:00 21,0 16,8 23,4 17,4 15,0 6 3 14 8 W 1015,5 18 0 0,0
25.05.2018 10:00:00 20,9 16,9 24,8 17,4 15,0 8 4 14 8 SSE 1015,3 17 41 0,0
25.05.2018 09:00:00 18,3 17,0 16,8 17,5 15,0 6 3 10 5 ENE 1014,7 11 41 0,0
25.05.2018 08:00:00 15,1 14,8 11,8 17,6 15,0 5 3 7 4 ENE 1014,8 11 49 0,0
25.05.2018 07:00:00 12,6 12,4 9,1 17,8 15,0 2 1 8 4 ENE 1014,7 5 16 0,0
25.05.2018 06:00:00 12,3 12,0 8,8 17,9 15,0 4 2 6 3 ENE 1014,7 0,9 0 0,0
25.05.2018 05:00:00 12,8 12,5 9,3 18,0 15,0 0 0 5 3 N 1014,7 0,4 0 0,0
25.05.2018 04:00:00 13,5 13,2 10,4 18,1 14,9 4 2 6 4 ENE 1014,9 5 0 0,0
25.05.2018 03:00:00 13,0 12,4 9,9 18,2 15,0 3 2 5 3 ENE 1015,4 4,3 0 0,0
25.05.2018 02:00:00 14,3 13,8 11,5 18,2 14,9 4 2 9 5 E 1015,6 7 0 0,0
25.05.2018 01:00:00 15,0 14,2 11,6 18,3 14,9 3 2 7 4 ENE 1015,9 11 0 0,0
25.05.2018 00:00:00 15,7 14,9 11,4 18,3 14,9 6 4 8 4 NE 1015,9 16 0 0,0
24.05.2018 23:00:00 17,0 15,5 13,0 18,3 14,9 0 0 6 3 N 1015,9 20 0 0,0
24.05.2018 22:00:00 18,4 15,5 15,0 18,3 14,9 2 1 4 2 SE 1015,6 32 0 0,0
24.05.2018 21:00:00 22,6 16,8 20,3 18,1 14,9 3 2 8 4 SE 1015,1 46 52 0,0
24.05.2018 20:00:00 23,8 15,0 25,9 18,0 14,9 3 1 9 5 SE 1014,9 47 60 0,0
24.05.2018 19:00:00 24,9 16,3 32,1 17,9 14,9 4 2 10 6 SE 1015,0 34 60 0,0
24.05.2018 18:00:00 25,0 15,6 33,2 17,7 14,8 0 0 9 5 N 1015,2 20 60 0,0
24.05.2018 17:00:00 24,3 16,3 26,8 17,6 14,9 5 3 10 5 N 1015,5 19 39 0,0
24.05.2018 16:00:00 22,6 16,4 25,0 17,5 14,9 0 0 7 4 N 1016,2 14 0 0,0
24.05.2018 15:00:00 22,6 16,4 28,8 17,5 14,9 5 3 11 6 N 1016,3 18 23 0,0
24.05.2018 14:00:00 21,2 16,2 23,4 17,4 14,9 5 3 11 6 NNE 1016,9 20 9 0,0
24.05.2018 13:00:00 20,0 16,8 19,1 17,4 14,8 4 2 8 5 E 1017,5 19 0 0,4
24.05.2018 12:00:00 18,8 16,0 18,9 17,4 14,8 4 2 15 8 S 1017,8 11 0 0,2
24.05.2018 11:00:00 18,8 15,1 20,2 17,5 14,8 11 6 18 10 SSW 1017,4 33 0 0,0
24.05.2018 10:00:00 17,8 15,6 18,4 17,6 14,8 2 1 7 4 E 1017,2 29 2 0,0
24.05.2018 09:00:00 16,1 14,3 16,2 17,7 14,8 4 2 12 6 E 1016,9 20 27 0,0
24.05.2018 08:00:00 13,6 13,0 11,1 17,8 14,8 3 2 8 4 SE 1016,7 19 28 0,0
24.05.2018 07:00:00 11,6 11,1 10,3 17,9 14,8 0 0 10 5 N 1016,5 9 4 0,0
24.05.2018 06:00:00 12,0 11,8 10,0 18,1 14,8 3 1 8 4 E 1016,2 13 0 0,2
24.05.2018 05:00:00 11,2 10,7 8,4 18,2 14,8 5 3 9 5 ENE 1016,3 8 0 0,0
24.05.2018 04:00:00 11,7 11,4 9,0 18,3 14,8 6 3 9 5 ENE 1016,3 6 0 0,0
24.05.2018 03:00:00 11,7 11,1 9,1 18,4 14,8 5 3 8 4 ENE 1016,5 8 0 0,0
24.05.2018 02:00:00 12,9 12,4 9,2 18,5 14,8 4 2 8 5 E 1016,7 10 0 0,0
24.05.2018 01:00:00 13,0 12,2 9,9 18,6 14,8 2 1 4 2 ENE 1016,8 10 0 0,0
24.05.2018 00:00:00 13,7 12,3 10,7 18,7 14,7 0 0 6 4 N 1017,0 15 0 0,0
23.05.2018 23:00:00 14,5 12,9 11,3 18,7 14,7 4 2 6 3 SW 1016,9 20 0 0,0
23.05.2018 22:00:00 16,7 13,4 12,5 18,7 14,7 0 0 8 4 N 1016,5 18 0 0,0
23.05.2018 21:00:00 19,9 13,4 18,1 18,5 14,7 4 2 28 15 WSW 1016,1 35 0 0,0
23.05.2018 20:00:00 22,1 13,4 20,1 18,4 14,7 8 5 11 6 W 1015,5 16 15 0,0
23.05.2018 19:00:00 26,1 13,9 30,5 18,2 14,7 3 2 12 7 S 1015,1 46 56 0,0
23.05.2018 18:00:00 25,9 14,0 26,6 18,0 14,7 8 5 15 8 SSW 1015,3 55 32 0,0
23.05.2018 17:00:00 26,2 14,0 33,9 17,8 14,7 5 3 16 9 W 1015,4 17 58 0,0
23.05.2018 16:00:00 26,2 14,0 37,1 17,5 14,7 3 2 16 8 SSW 1015,9 19 60 0,0
23.05.2018 15:00:00 24,9 13,4 32,3 17,4 14,7 5 3 14 8 S 1016,5 35 57 0,0
23.05.2018 14:00:00 24,2 13,4 29,6 17,2 14,7 3 2 13 7 WSW 1017,0 30 47 0,0
23.05.2018 13:00:00 23,8 13,9 33,7 17,2 14,7 5 3 22 12 SW 1017,3 2,8 58 0,0
23.05.2018 12:00:00 22,6 14,4 32,9 17,2 14,7 5 3 14 7 W 1017,5 18 60 0,0
23.05.2018 11:00:00 20,9 14,5 29,1 17,2 14,7 5 3 12 6 NNW 1017,7 16 60 0,0
23.05.2018 10:00:00 18,7 14,4 22,9 17,3 14,7 3 1 11 6 WNW 1017,7 13 60 0,0
23.05.2018 09:00:00 15,6 14,1 12,3 17,4 14,6 6 4 10 5 WNW 1018,0 9 42 0,0
23.05.2018 08:00:00 12,5 12,0 9,0 17,5 14,6 3 2 13 7 SSE 1017,6 6 13 0,0
23.05.2018 07:00:00 10,7 9,9 7,8 17,6 14,6 3 2 6 4 SSE 1016,9 5 0 0,0
23.05.2018 06:00:00 12,0 11,4 9,7 17,7 14,6 0 0 6 3 N 1016,7 10 0 0,0
23.05.2018 05:00:00 12,2 11,3 9,2 17,8 14,6 0 0 14 8 N 1016,3 11 0 0,0
23.05.2018 04:00:00 13,6 12,2 10,9 17,9 14,6 0 0 10 6 N 1016,2 17 0 0,0
23.05.2018 03:00:00 14,6 11,9 11,8 18,0 14,6 8 4 13 7 W 1016,1 20 0 0,0
23.05.2018 02:00:00 15,5 12,1 12,8 18,0 14,6 11 6 16 9 WSW 1016,3 24 0 0,0
23.05.2018 01:00:00 16,0 12,9 13,6 18,1 14,6 5 3 17 9 SSW 1016,4 24 0 0,0
23.05.2018 00:00:00 17,1 13,6 14,3 18,1 14,6 8 4 14 7 W 1016,3 30 0 0,0
22.05.2018 23:00:00 17,9 14,2 15,6 18,1 14,6 8 5 13 7 WSW 1016,3 33 0 0,0
22.05.2018 22:00:00 18,9 14,4 16,6 18,0 14,5 6 4 13 7 SSW 1015,5 19 0 0,0
22.05.2018 21:00:00 20,5 12,7 19,2 18,0 14,6 8 4 24 13 WSW 1015,0 55 10 0,0
22.05.2018 20:00:00 22,6 12,2 22,5 17,9 14,6 20 11 27 15 WNW 1014,2 56 57 0,0
22.05.2018 19:00:00 23,8 13,1 24,8 17,7 14,5 7 4 17 9 SW 1013,5 50 47 0,0
22.05.2018 18:00:00 24,2 14,3 24,2 17,5 14,5 11 6 24 13 SW 1013,5 60 36 0,0
22.05.2018 17:00:00 24,4 14,2 26,6 17,4 14,6 11 6 17 9 W 1013,5 60 39 0,0
22.05.2018 16:00:00 24,6 14,4 25,7 17,2 14,5 4 2 16 9 NW 1013,8 19 13 0,0
22.05.2018 15:00:00 23,0 14,0 26,9 17,1 14,5 7 4 19 10 W 1014,1 20 43 0,0
22.05.2018 14:00:00 23,2 15,5 31,3 17,0 14,5 9 5 25 14 SW 1014,4 20 56 0,0
22.05.2018 13:00:00 22,0 16,0 24,3 16,9 14,5 9 5 16 9 SW 1014,6 19 27 0,0
22.05.2018 12:00:00 20,6 14,3 23,1 16,9 14,5 7 4 13 7 WNW 1014,6 13 37 0,0
22.05.2018 11:00:00 20,5 14,6 24,7 17,0 14,5 5 3 9 5 SW 1014,4 60 60 0,0
22.05.2018 10:00:00 19,1 15,0 18,6 17,0 14,5 3 2 7 4 SSW 1014,4 37 60 0,0
22.05.2018 09:00:00 16,3 14,5 13,4 17,2 14,5 3 2 8 4 E 1014,4 49 60 0,0
22.05.2018 08:00:00 12,7 12,5 7,9 17,3 14,5 5 3 7 4 ENE 1014,1 15 48 0,0
22.05.2018 07:00:00 10,2 9,9 7,0 17,4 14,5 3 1 4 2 E 1013,9 0,8 0 0,0
22.05.2018 06:00:00 10,5 10,2 7,0 17,6 14,5 2 1 5 3 ENE 1013,3 0,6 0 0,0
22.05.2018 05:00:00 11,5 11,0 8,1 17,7 14,5 3 2 6 4 ENE 1013,0 8 0 0,2
22.05.2018 04:00:00 12,5 11,7 8,8 17,8 14,4 0 0 8 4 N 1012,7 0,3 0 0,0
22.05.2018 03:00:00 13,9 13,1 12,8 17,8 14,4 7 4 10 5 WSW 1012,7 18 0 0,0
22.05.2018 02:00:00 14,7 13,7 13,9 17,9 14,4 5 3 15 8 NE 1012,6 35 0 0,0
22.05.2018 01:00:00 14,7 13,9 13,8 18,0 14,4 4 2 10 6 WSW 1013,2 27 0 0,0
22.05.2018 00:00:00 15,0 14,0 13,7 18,0 14,4 4 2 21 12 ENE 1012,7 33 0 0,0
21.05.2018 23:00:00 15,3 13,7 14,6 18,0 14,4 13 7 30 16 E 1012,9 37 0 0,2
21.05.2018 22:00:00 15,5 14,4 14,7 18,1 14,4 6 3 23 12 SW 1012,2 19 0 2,0
21.05.2018 21:00:00 16,6 13,9 15,2 18,0 14,4 5 3 21 11 ESE 1011,9 16 0 1,0
21.05.2018 20:00:00 18,8 14,3 16,6 17,9 14,4 5 3 20 11 S 1011,2 27 0 0,0
21.05.2018 19:00:00 20,4 12,4 19,1 17,8 14,4 11 6 28 15 NNE 1010,0 57 0 0,0
21.05.2018 18:00:00 21,9 11,6 20,6 17,6 14,4 19 10 30 16 N 1009,6 38 0 0,0
21.05.2018 17:00:00 24,6 13,8 25,6 17,3 14,4 6 3 18 10 SSW 1009,4 58 36 0,0
21.05.2018 16:00:00 26,0 13,5 34,3 17,1 14,3 6 4 19 10 S 1009,7 19 60 0,0
21.05.2018 15:00:00 25,7 12,9 34,0 16,9 14,4 6 3 20 11 SSE 1010,3 49 60 0,0
21.05.2018 14:00:00 24,3 14,1 28,8 16,7 14,4 6 4 18 10 S 1010,9 19 52 0,0
21.05.2018 13:00:00 24,2 14,6 34,2 16,6 14,3 8 4 19 11 SSE 1011,5 37 58 0,0
21.05.2018 12:00:00 23,3 15,6 31,1 16,6 14,3 8 4 20 11 S 1011,7 38 60 0,0
21.05.2018 11:00:00 21,8 14,9 26,7 16,6 14,3 6 3 19 10 SSE 1011,9 41 60 0,0
21.05.2018 10:00:00 20,2 14,6 19,2 16,6 14,3 7 4 13 7 SE 1012,3 38 60 0,0
21.05.2018 09:00:00 16,6 13,9 13,8 16,8 14,3 5 3 11 6 ENE 1012,4 39 60 0,0
21.05.2018 08:00:00 13,3 11,7 9,2 16,9 14,3 6 4 9 5 ENE 1012,6 20 60 0,0
21.05.2018 07:00:00 10,1 9,6 8,1 17,0 14,3 6 3 9 5 E 1012,5 20 13 0,0
21.05.2018 06:00:00 10,1 9,6 8,2 17,1 14,3 6 4 10 5 E 1012,1 19 0 0,2
21.05.2018 05:00:00 10,8 10,2 8,6 17,3 14,3 5 3 8 5 ENE 1012,1 20 0 0,0
21.05.2018 04:00:00 11,0 10,2 8,4 17,4 14,3 6 3 11 6 ENE 1012,3 28 0 0,0
21.05.2018 03:00:00 12,2 10,8 9,3 17,5 14,3 4 2 10 5 ESE 1012,5 44 0 0,0
21.05.2018 02:00:00 13,2 11,8 11,0 17,5 14,3 0 0 9 5 N 1013,0 48 0 0,0
21.05.2018 01:00:00 14,0 11,7 10,1 17,7 14,3 6 3 21 12 N 1013,4 50 0 0,0
21.05.2018 00:00:00 14,2 11,4 10,0 17,7 14,3 5 3 12 7 E 1013,3 46 0 0,0
20.05.2018 23:00:00 14,5 11,8 10,6 17,7 14,2 3 2 18 10 SE 1013,3 39 0 0,0
20.05.2018 22:00:00 16,6 13,3 11,2 17,7 14,2 3 2 6 3 S 1012,6 55 0 0,0
20.05.2018 21:00:00 21,7 12,5 15,2 17,6 14,2 0 0 3 2 N 1012,4 60 52 0,0
20.05.2018 20:00:00 24,5 11,4 21,1 17,4 14,2 0 0 7 4 N 1012,3 60 60 0,0
20.05.2018 19:00:00 25,5 10,5 26,3 17,3 14,2 3 2 17 9 W 1012,3 19 60 0,0
20.05.2018 18:00:00 25,6 10,6 31,1 17,0 14,2 5 3 16 9 WSW 1012,6 19 60 0,0
20.05.2018 17:00:00 25,2 11,4 33,5 16,8 14,2 5 3 16 9 N 1013,2 39 60 0,0
20.05.2018 16:00:00 25,3 12,5 34,4 16,5 14,2 4 2 16 9 NW 1014,1 51 60 0,0
20.05.2018 15:00:00 24,2 11,5 28,1 16,3 14,2 10 5 18 10 WNW 1014,8 20 55 0,0
20.05.2018 14:00:00 23,4 14,7 36,1 16,1 14,2 8 4 12 7 SW 1015,5 5 60 0,0
20.05.2018 13:00:00 22,3 13,4 32,7 16,1 14,2 2 1 13 7 SW 1016,0 28 60 0,0
20.05.2018 12:00:00 21,0 14,4 29,4 16,0 14,2 4 2 9 5 NNW 1016,6 60 60 0,0
20.05.2018 11:00:00 19,2 13,6 24,1 16,1 14,2 4 2 9 5 NW 1016,8 18 60 0,0
20.05.2018 10:00:00 16,9 12,6 17,3 16,2 14,2 3 1 9 5 N 1017,0 17 60 0,0
20.05.2018 09:00:00 14,6 11,7 11,9 16,3 14,2 5 3 8 4 ENE 1017,1 30 60 0,0
20.05.2018 08:00:00 11,5 10,6 6,7 16,4 14,2 0 0 4 2 N 1017,1 11 60 0,0
20.05.2018 07:00:00 8,1 7,7 5,1 16,6 14,2 3 1 5 3 NNE 1016,9 4,1 11 0,0
20.05.2018 06:00:00 8,0 7,6 5,2 16,8 14,2 4 2 5 3 ENE 1016,5 9 0 0,0
20.05.2018 05:00:00 8,6 8,0 5,6 16,9 14,2 0 0 3 2 N 1016,5 3,1 0 0,0
20.05.2018 04:00:00 9,1 8,3 6,2 17,0 14,1 0 0 3 1 N 1016,6 9 0 0,0
20.05.2018 03:00:00 10,0 9,1 6,8 17,1 14,1 0 0 4 2 N 1017,0 19 0 0,0
20.05.2018 02:00:00 11,3 9,9 7,5 17,3 14,1 3 2 5 3 S 1017,2 33 0 0,0
20.05.2018 01:00:00 12,7 9,7 8,0 17,3 14,1 4 2 8 5 WNW 1017,4 42 0 0,0
20.05.2018 00:00:00 13,7 10,7 8,9 17,4 14,1 4 2 9 5 WSW 1017,4 33 0 0,0
19.05.2018 23:00:00 16,4 10,9 10,2 17,3 14,1 5 3 15 8 WNW 1017,2 44 0 0,0
19.05.2018 22:00:00 17,8 10,7 11,4 17,3 14,1 6 3 15 8 WNW 1016,8 12 0 0,0
19.05.2018 21:00:00 20,6 11,5 15,8 17,2 14,1 7 4 13 7 N 1016,2 59 60 0,0
19.05.2018 20:00:00 22,6 11,6 20,6 17,1 14,1 7 4 19 11 N 1015,8 60 60 0,0
19.05.2018 19:00:00 23,2 11,6 23,2 16,9 14,1 9 5 26 14 NW 1015,7 51 42 0,0
19.05.2018 18:00:00 23,5 12,2 25,6 16,7 14,1 12 7 37 20 NW 1015,9 50 34 0,0
19.05.2018 17:00:00 24,8 12,1 29,4 16,5 14,1 7 4 24 13 WNW 1016,1 19 49 0,0
19.05.2018 16:00:00 24,4 13,3 29,2 16,2 14,1 8 5 22 12 W 1016,8 19 55 0,0
19.05.2018 15:00:00 23,7 11,4 28,8 16,0 14,1 4 2 19 10 NW 1017,1 49 52 0,0
19.05.2018 14:00:00 23,7 13,0 31,4 15,9 14,1 7 4 19 10 WNW 1017,4 20 53 0,0
19.05.2018 13:00:00 22,3 13,9 31,9 15,8 14,1 9 5 18 10 WNW 1017,9 20 60 0,0
19.05.2018 12:00:00 20,9 13,8 28,9 15,7 14,0 6 4 16 9 WNW 1018,1 19 60 0,0

tt = Température de l'air
td = dewpoint
tt 5cm = Température de l'air 5cm
tt -20cm = Température de l'air -20cm
tt -100cm = Température de l'air -100cm
ff = Vitesse du vent
fx = gusts
dd = Direction du vent
ppp = reduced air pressure
vv = visibility
sd = Ensoleillement
rr = Quantités de précipitations

stations d'obs. à proximité